Location: Newark
(37.8333°N, 119.5000°W)
Time: 07:17:12
(UTC+00:00)

Courier 1B Rocket - Visible Passes

Search period start: 24 August 2019 00:00
Search period end: 03 September 2019 00:00
Orbit: 920 x 1202 km, 28.3° (Epoch: 23 August)

Date Brightness Start Highest point End Pass type
(mag) Time Alt. Az. Time Alt. Az. Time Alt. Az.
24 Aug 7.5 09:30:35 12° ESE 09:30:35 12° ESE 09:31:09 10° ESE visible
24 Aug 5.9 11:16:57 34° SSW 11:18:35 37° S 11:25:33 10° ESE visible
25 Aug 6.5 10:19:40 28° SE 10:19:40 28° SE 10:24:09 10° ESE visible
25 Aug 6.0 12:06:02 20° WSW 12:10:39 41° S 12:17:48 10° ESE visible
26 Aug 7.5 09:22:26 11° ESE 09:22:26 11° ESE 09:22:38 10° ESE visible
26 Aug 5.8 11:08:48 38° S 11:09:35 40° S 11:16:36 10° ESE visible
26 Aug 6.2 12:56:03 10° WSW 13:02:44 35° S 13:09:39 10° SE visible
27 Aug 6.6 10:11:35 26° SE 10:11:35 26° SE 10:15:17 10° ESE visible
27 Aug 5.9 11:57:58 24° SW 12:01:40 38° S 12:08:40 10° ESE visible
28 Aug 5.8 11:00:49 39° S 11:00:49 39° S 11:07:32 10° ESE visible
28 Aug 6.3 12:47:26 10° WSW 12:53:42 30° SSW 13:00:13 10° SE visible
29 Aug 6.9 10:03:44 21° ESE 10:03:44 21° ESE 10:06:20 10° ESE visible
29 Aug 6.0 11:50:07 27° SW 11:52:41 34° S 11:59:23 10° SE visible
30 Aug 6.1 10:53:07 34° SSE 10:53:07 34° SSE 10:58:23 10° ESE visible
30 Aug 6.5 12:39:30 12° WSW 12:44:38 24° SSW 12:50:31 10° SSE visible
31 Aug 7.3 09:56:11 14° ESE 09:56:11 14° ESE 09:57:16 10° ESE visible
31 Aug 6.1 11:42:35 28° SSW 11:43:40 29° SSW 11:49:55 10° SE visible
01 Sep 6.6 10:45:44 24° SSE 10:45:44 24° SSE 10:49:06 10° SE visible
01 Sep 6.7 12:32:08 13° SW 12:35:35 18° SSW 12:40:22 10° SSE visible
02 Sep 6.4 11:35:23 22° S 11:35:23 22° S 11:40:09 10° SSE visible
